QPF
0.00 0.00 0.00 0.00 0.00 0.00 0.00 0.00 0.00 0.00 0.00 0.00 0.00 0.00 0.00 0.00 0.00 0.00 0.01 0.05 0.00 0.00 0.05 0.03 0.04 0.01 0.00 0.02 0.03 0.04 0.01 0.00 0.00 0.00 0.00 0.00 0.00 0.00 0.00 0.00 0.00 0.00 0.00 0.00 0.00 0.00 0.00 0.00 0.00
0.00 0.00 0.00 0.00 0.00 0.00 0.00 0.00 0.00 0.00 0.00 0.00 0.01 0.00 0.00 0.00 0.00 0.00 0.02 0.10 0.00 0.00 0.00 0.00 0.01 0.00 0.01 0.01 0.01 0.00 0.00 0.00 0.00 0.00 0.00 0.00 0.00 0.00 0.00 0.00 0.00 0.00 0.00 0.00 0.00 0.00 0.00 0.00 0.00
0.00 0.00 0.00 0.00 0.00 0.00 0.00 0.00 0.00 0.00 0.00 0.00 0.00 0.00 0.00 0.00 0.00 0.00 0.00 0.00 0.00 0.00 0.00 0.00 0.00 0.00 0.01 0.01 0.01 0.00 0.00 0.00 0.01 0.01 0.01 0.01 0.00 0.00 0.00 0.00 0.00 0.00 0.00 0.00 0.00 0.00 0.00 0.00 0.00
0.00 0.00 0.00 0.00 0.00 0.00 0.00 0.00 0.00 0.00 0.00 0.00 0.00 0.00 0.00 0.01 0.00 0.00 0.00 0.00 0.00 0.00 0.00 0.00 0.02 0.03 0.03 0.02 0.01 0.01 0.00 0.00 0.01 0.01 0.01 0.00 0.01 0.00 0.00 0.00 0.00 0.00 0.00 0.00 0.00 0.00 0.00 0.00 0.00
0.00 0.00 0.00 0.00 0.00 0.00 0.00 0.00 0.00 0.00 0.00 0.00 0.00 0.00 0.00 0.00 0.00 0.00 0.00 0.00 0.00 0.00 0.00 0.00 0.04 0.05 0.04 0.02 0.01 0.00 0.01 0.00 0.00 0.00 0.01 0.01 0.00 0.00 0.00 0.00 0.00 0.00 0.00 0.00 0.00 0.00 0.00 0.00 0.00
0.00 0.00 0.00 0.00 0.00 0.00 0.00 0.00 0.00 0.00 0.00 0.00 0.00 0.00 0.00 0.00 0.00 0.00 0.00 0.00 0.00 0.00 0.00 0.00 0.02 0.02 0.03 0.02 0.00 0.00 0.00 0.00 0.00 0.00 0.00 0.01 0.00 0.00 0.00 0.00 0.00 0.00 0.00 0.00 0.00 0.00 0.00 0.00 0.00
0.00 0.00 0.00 0.00 0.00 0.00 0.00 0.00 0.00 0.00 0.00 0.00 0.00 0.00 0.00 0.00 0.00 0.00 0.00 0.00 0.00 0.00 0.00 0.00 0.01 0.00 0.01 0.01 0.00 0.00 0.00 0.02 0.01 0.00 0.00 0.00 0.00 0.00 0.00 0.00 0.00 0.00 0.00 0.00 0.00 0.00 0.00 0.00 0.00
0.00 0.00 0.00 0.00 0.00 0.00 0.00 0.00 0.00 0.00 0.00 0.00 0.00 0.00 0.00 0.00 0.00 0.00 0.00 0.00 0.00 0.00 0.02 0.01 0.00 0.00 0.00 0.00 0.00 0.00 0.00 0.00 0.00 0.00 0.00 0.00 0.00 0.00 0.00 0.01 0.00 0.01 0.00 0.00 0.00 0.00 0.00 0.00 0.00
0.00 0.00 0.00 0.00 0.00 0.00 0.00 0.00 0.00 0.00 0.00 0.00 0.00 0.00 0.00 0.00 0.00 0.00 0.00 0.01 0.00 0.00 0.01 0.00 0.00 0.00 0.02 0.02 0.00 0.00 0.00 0.00 0.00 0.00 0.00 0.00 0.00 0.00 0.00 0.00 0.00 0.00 0.00 0.00 0.00 0.00 0.01 0.00 0.00
0.00 0.00 0.00 0.00 0.00 0.00 0.00 0.00 0.00 0.00 0.00 0.00 0.00 0.00 0.00 0.00 0.00 0.00 0.00 0.00 0.00 0.00 0.00 0.00 0.01 0.00 0.00 0.02 0.15 0.12 0.04 0.00 0.00 0.00 0.00 0.00 0.00 0.00 0.00 0.00 0.01 0.00 0.00 0.00 0.00 0.00 0.03 0.02 0.00
0.00 0.00 0.00 0.00 0.00 0.00 0.00 0.00 0.00 0.00 0.00 0.00 0.00 0.00 0.00 0.00 0.00 0.00 0.00 0.00 0.00 0.00 0.00 0.00 0.00 0.00 0.00 0.00 0.00 0.01 0.05 0.03 0.00 0.00 0.00 0.00 0.00 0.00 0.00 0.00 0.01 0.00 0.00 0.00 0.00 0.00 0.00 0.00 0.02
0.00 0.00 0.00 0.00 0.00 0.00 0.00 0.00 0.00 0.00 0.00 0.00 0.00 0.00 0.00 0.00 0.00 0.00 0.00 0.00 0.00 0.00 0.00 0.00 0.00 0.00 0.00 0.02 0.01 0.01 0.00 0.00 0.00 0.00 0.00 0.01 0.00 0.00 0.00 0.00 0.00 0.00 0.00 0.00 0.00 0.02 0.02 0.00 0.03
0.00 0.00 0.00 0.00 0.00 0.00 0.00 0.00 0.00 0.00 0.00 0.00 0.00 0.00 0.00 0.00 0.00 0.00 0.00 0.00 0.00 0.00 0.00 0.00 0.00 0.00 0.00 0.00 0.00 0.00 0.00 0.01 0.00 0.00 0.00 0.00 0.00 0.00 0.00 0.04 0.01 0.00 0.01 0.01 0.03 0.13 0.07 0.01 0.00
0.00 0.00 0.00 0.00 0.00 0.00 0.00 0.00 0.00 0.00 0.00 0.00 0.00 0.00 0.00 0.00 0.00 0.00 0.00 0.00 0.00 0.00 0.00 0.00 0.00 0.00 0.00 0.00 0.00 0.00 0.00 0.00 0.00 0.00 0.01 0.07 0.02 0.01 0.01 0.04 0.02 0.00 0.09 0.01 0.00 0.00 0.00 0.00 0.00
0.00 0.00 0.00 0.00 0.00 0.00 0.00 0.00 0.00 0.00 0.00 0.00 0.00 0.00 0.00 0.00 0.00 0.00 0.00 0.00 0.00 0.00 0.00 0.00 0.00 0.00 0.00 0.00 0.00 0.01 0.03 0.03 0.02 0.00 0.00 0.03 0.01 0.00 0.02 0.06 0.05 0.00 0.02 0.00 0.00 0.00 0.00 0.00 0.00
0.00 0.00 0.00 0.00 0.00 0.00 0.00 0.00 0.00 0.00 0.00 0.00 0.00 0.00 0.00 0.00 0.00 0.00 0.00 0.00 0.00 0.00 0.00 0.00 0.00 0.00 0.00 0.00 0.00 0.00 0.02 0.01 0.01 0.00 0.01 0.03 0.05 0.03 0.04 0.16 0.13 0.04 0.04 0.00 0.00 0.00 0.00 0.00 0.00
0.00 0.00 0.00 0.00 0.00 0.00 0.00 0.00 0.00 0.00 0.00 0.00 0.00 0.00 0.00 0.00 0.00 0.00 0.00 0.00 0.00 0.00 0.00 0.00 0.00 0.00 0.00 0.00 0.00 0.00 0.00 0.00 0.01 0.00 0.09 0.12 0.10 0.11 0.08 0.13 0.07 0.07 0.08 0.03 0.00 0.00 0.00 0.00 0.00
0.00 0.00 0.00 0.00 0.00 0.00 0.00 0.00 0.00 0.00 0.00 0.00 0.00 0.00 0.00 0.00 0.00 0.00 0.00 0.00 0.00 0.00 0.00 0.00 0.00 0.00 0.00 0.00 0.00 0.00 0.00 0.01 0.00 0.01 0.08 0.04 0.03 0.03 0.02 0.02 0.02 0.00 0.00 0.00 0.00 0.00 0.00 0.00 0.00
0.00 0.00 0.00 0.00 0.00 0.00 0.00 0.00 0.00 0.00 0.00 0.00 0.00 0.00 0.00 0.00 0.00 0.00 0.00 0.00 0.00 0.00 0.00 0.00 0.00 0.00 0.00 0.00 0.00 0.00 0.00 0.00 0.00 0.00 0.00 0.01 0.00 0.00 0.00 0.00 0.00 0.00 0.00 0.00 0.00 0.00 0.00 0.00 0.00
0.00 0.00 0.00 0.00 0.00 0.00 0.00 0.00 0.00 0.00 0.00 0.00 0.00 0.00 0.00 0.00 0.00 0.00 0.00 0.00 0.00 0.00 0.00 0.00 0.00 0.00 0.00 0.00 0.00 0.00 0.00 0.00 0.00 0.00 0.00 0.00 0.00 0.00 0.00 0.00 0.00 0.00 0.00 0.00 0.00 0.00 0.00 0.00 0.00
0.00 0.00 0.00 0.00 0.00 0.00 0.00 0.00 0.00 0.00 0.00 0.00 0.00 0.00 0.00 0.00 0.00 0.00 0.00 0.00 0.00 0.00 0.00 0.00 0.00 0.00 0.00 0.00 0.00 0.00 0.00 0.00 0.00 0.00 0.00 0.00 0.00 0.00 0.00 0.00 0.00 0.00 0.00 0.00 0.00 0.00 0.00 0.00 0.00
0.00 0.00 0.00 0.00 0.00 0.00 0.00 0.00 0.00 0.00 0.00 0.00 0.00 0.00 0.00 0.00 0.00 0.00 0.00 0.00 0.00 0.00 0.00 0.00 0.00 0.00 0.00 0.00 0.00 0.00 0.00 0.00 0.00 0.00 0.00 0.00 0.00 0.00 0.00 0.00 0.00 0.00 0.00 0.00 0.00 0.00 0.00 0.00 0.00
0.00 0.00 0.00 0.00 0.00 0.00 0.00 0.00 0.00 0.00 0.00 0.00 0.00 0.00 0.00 0.00 0.00 0.00 0.00 0.00 0.00 0.00 0.00 0.00 0.00 0.00 0.00 0.00 0.00 0.00 0.00 0.00 0.00 0.00 0.00 0.00 0.00 0.00 0.00 0.00 0.00 0.00 0.00 0.00 0.00 0.00 0.00 0.00 0.00
0.00 0.00 0.00 0.00 0.00 0.00 0.00 0.00 0.00 0.00 0.00 0.00 0.00 0.00 0.00 0.00 0.00 0.00 0.00 0.00 0.00 0.00 0.00 0.00 0.00 0.00 0.00 0.00 0.00 0.00 0.00 0.00 0.00 0.00 0.00 0.00 0.00 0.00 0.00 0.00 0.00 0.00 0.00 0.00 0.00 0.00 0.00 0.00 0.00
0.00 0.00 0.00 0.00 0.00 0.00 0.00 0.00 0.00 0.00 0.00 0.00 0.00 0.00 0.00 0.00 0.00 0.00 0.00 0.00 0.00 0.00 0.00 0.00 0.00 0.00 0.00 0.00 0.00 0.00 0.00 0.00 0.00 0.00 0.00 0.00 0.00 0.00 0.00 0.00 0.00 0.00 0.00 0.00 0.00 0.00 0.00 0.00 0.00
0.00 0.00 0.00 0.00 0.00 0.00 0.00 0.00 0.00 0.00 0.00 0.00 0.00 0.00 0.00 0.00 0.00 0.00 0.00 0.00 0.00 0.00 0.00 0.00 0.00 0.00 0.00 0.00 0.00 0.00 0.00 0.00 0.00 0.00 0.00 0.00 0.00 0.00 0.00 0.00 0.00 0.00 0.00 0.00 0.00 0.00 0.00 0.00 0.00
0.00 0.00 0.00 0.00 0.00 0.00 0.00 0.00 0.00 0.00 0.00 0.00 0.00 0.00 0.00 0.00 0.00 0.00 0.00 0.00 0.00 0.00 0.00 0.00 0.00 0.00 0.00 0.00 0.00 0.00 0.00 0.00 0.00 0.00 0.00 0.00 0.00 0.00 0.00 0.00 0.00 0.00 0.00 0.00 0.00 0.00 0.00 0.00 0.00
0.00 0.00 0.00 0.00 0.00 0.00 0.00 0.00 0.00 0.00 0.00 0.00 0.00 0.00 0.00 0.00 0.00 0.00 0.00 0.00 0.00 0.00 0.00 0.00 0.00 0.00 0.00 0.00 0.00 0.00 0.00 0.00 0.00 0.00 0.00 0.00 0.00 0.00 0.00 0.00 0.00 0.00 0.00 0.00 0.00 0.00 0.00 0.00 0.00
0.00 0.00 0.00 0.00 0.00 0.00 0.00 0.00 0.00 0.00 0.00 0.00 0.00 0.00 0.00 0.00 0.00 0.00 0.00 0.00 0.00 0.00 0.00 0.00 0.00 0.00 0.00 0.00 0.02 0.00 0.00 0.00 0.00 0.00 0.00 0.00 0.00 0.00 0.00 0.00 0.00 0.00 0.00 0.00 0.00 0.00 0.00 0.00 0.00
0.00 0.00 0.00 0.00 0.00 0.00 0.00 0.00 0.00 0.00 0.00 0.00 0.00 0.00 0.00 0.00 0.00 0.00 0.00 0.00 0.00 0.00 0.00 0.00 0.00 0.00 0.01 0.01 0.03 0.00 0.00 0.00 0.00 0.00 0.00 0.00 0.00 0.00 0.00 0.00 0.00 0.00 0.00 0.00 0.00 0.00 0.00 0.01 0.02
MSLP
1008.04 1007.87 1007.97 1008.07 1008.90 1008.84 1009.19 1010.25 1009.97 1010.16 1010.24 1010.12 1010.41 1010.85 1012.20 1012.46 1012.97 1015.10 1015.29 1015.52 1015.67 1015.73 1015.72 1015.76 1016.02 1016.01 1016.23 1016.41 1016.65 1016.92 1017.14 1017.02 1017.30 1017.43 1017.47 1017.80 1018.03 1017.99 1018.33 1018.52 1018.52 1018.52 1018.62 1018.54 1018.42 1018.40 1018.37 1018.36 1018.31
1008.32 1008.45 1008.29 1008.40 1008.83 1009.09 1009.15 1009.53 1009.77 1009.65 1009.89 1010.34 1010.65 1011.21 1011.87 1013.19 1013.43 1014.67 1015.29 1015.51 1015.51 1015.72 1015.79 1016.06 1016.09 1016.18 1016.50 1016.94 1017.06 1017.08 1017.14 1017.25 1017.68 1017.56 1017.75 1017.97 1018.00 1018.09 1018.36 1018.56 1018.52 1018.60 1018.68 1018.63 1018.61 1018.52 1018.46 1018.50 1018.43
1008.40 1008.09 1008.48 1008.44 1008.82 1008.66 1009.05 1009.23 1009.17 1009.63 1010.05 1010.13 1010.68 1011.37 1012.57 1013.71 1013.97 1014.53 1014.95 1015.33 1015.62 1015.86 1015.94 1016.23 1016.33 1016.55 1016.77 1016.99 1017.16 1017.23 1017.48 1017.53 1017.59 1017.81 1017.91 1017.89 1018.14 1018.22 1018.42 1018.49 1018.51 1018.55 1018.56 1018.59 1018.63 1018.61 1018.55 1018.51 1018.50
1007.99 1008.49 1008.31 1008.28 1008.35 1007.91 1008.03 1008.71 1008.65 1009.75 1010.55 1010.56 1010.83 1012.00 1013.14 1013.51 1013.81 1014.26 1014.98 1015.21 1015.77 1016.03 1016.19 1016.31 1016.56 1016.92 1016.98 1017.19 1017.25 1017.50 1017.61 1017.59 1017.76 1017.83 1017.93 1018.03 1018.11 1018.32 1018.45 1018.52 1018.47 1018.47 1018.57 1018.66 1018.63 1018.61 1018.51 1018.40 1018.37
1007.58 1007.98 1008.54 1008.69 1007.95 1008.09 1007.92 1008.12 1008.71 1009.48 1010.15 1010.70 1011.03 1012.69 1013.37 1013.94 1014.22 1014.61 1015.14 1015.57 1015.84 1016.14 1016.30 1016.51 1016.79 1017.06 1017.23 1017.39 1017.38 1017.60 1017.70 1017.73 1017.82 1017.93 1017.92 1018.05 1018.24 1018.33 1018.37 1018.40 1018.44 1018.54 1018.60 1018.54 1018.56 1018.47 1018.40 1018.31 1018.27
1007.45 1008.18 1009.15 1009.42 1008.63 1007.79 1008.21 1007.95 1008.45 1009.35 1010.42 1011.19 1011.98 1012.52 1014.04 1014.33 1014.60 1014.93 1015.34 1015.69 1015.81 1016.15 1016.36 1016.68 1017.02 1017.16 1017.33 1017.49 1017.65 1017.75 1017.85 1017.91 1017.98 1018.02 1018.04 1018.29 1018.33 1018.38 1018.44 1018.47 1018.51 1018.59 1018.52 1018.41 1018.40 1018.40 1018.35 1018.26 1018.27
1006.27 1008.37 1009.20 1009.25 1009.04 1008.22 1008.18 1007.91 1008.32 1009.52 1010.33 1011.04 1011.52 1012.58 1014.23 1014.55 1014.68 1014.92 1015.39 1015.73 1015.80 1016.18 1016.52 1016.78 1017.03 1017.15 1017.37 1017.54 1017.62 1017.73 1017.86 1017.97 1018.00 1018.02 1018.19 1018.24 1018.33 1018.39 1018.43 1018.47 1018.55 1018.51 1018.40 1018.33 1018.24 1018.29 1018.26 1018.21 1018.21
1006.17 1009.15 1009.05 1008.84 1008.81 1008.35 1008.09 1007.91 1008.15 1008.58 1009.80 1010.74 1011.15 1012.49 1013.58 1013.96 1014.48 1014.93 1015.47 1015.91 1016.27 1016.54 1016.67 1016.85 1017.04 1017.27 1017.42 1017.47 1017.49 1017.65 1017.79 1017.81 1017.93 1018.01 1018.04 1018.09 1018.30 1018.38 1018.44 1018.57 1018.55 1018.44 1018.44 1018.30 1018.20 1018.23 1018.23 1018.15 1018.15
1006.32 1008.18 1008.80 1008.08 1008.01 1007.91 1007.65 1007.63 1008.85 1008.86 1009.56 1010.27 1010.55 1011.37 1012.45 1013.44 1014.26 1015.02 1015.61 1016.23 1016.57 1016.76 1016.87 1016.92 1017.11 1017.30 1017.36 1017.45 1017.46 1017.47 1017.53 1017.61 1017.76 1017.91 1017.96 1018.14 1018.42 1018.37 1018.47 1018.60 1018.60 1018.49 1018.32 1018.21 1018.16 1018.17 1018.26 1018.14 1018.09
1005.84 1007.23 1007.49 1006.72 1006.78 1007.01 1007.35 1007.50 1008.16 1009.23 1010.05 1010.56 1011.10 1011.81 1012.63 1013.45 1014.19 1014.87 1015.52 1016.13 1016.52 1016.68 1016.83 1016.96 1017.07 1017.18 1017.29 1017.20 1017.52 1017.52 1017.63 1017.51 1017.64 1017.87 1018.02 1018.26 1018.45 1018.58 1018.56 1018.51 1018.33 1018.26 1018.23 1018.08 1018.06 1018.11 1018.15 1018.15 1018.18
1004.64 1005.35 1005.61 1006.07 1006.14 1006.54 1007.15 1007.82 1008.18 1008.99 1010.00 1009.68 1010.54 1011.48 1012.49 1013.37 1014.15 1014.66 1015.24 1015.57 1015.84 1016.12 1016.51 1016.71 1016.74 1017.01 1017.20 1017.29 1017.46 1017.60 1017.58 1017.60 1017.72 1017.82 1017.94 1018.21 1018.45 1018.52 1018.53 1018.51 1018.44 1018.43 1018.31 1018.28 1018.09 1018.18 1018.35 1018.33 1018.24
1003.72 1003.80 1004.59 1005.91 1005.88 1006.45 1006.97 1007.70 1008.46 1008.53 1009.34 1009.64 1010.37 1011.29 1012.20 1013.14 1013.87 1014.22 1014.78 1015.27 1015.73 1015.85 1016.03 1016.43 1016.52 1016.78 1016.94 1016.99 1017.21 1017.34 1017.50 1017.57 1017.67 1017.77 1017.95 1018.23 1018.40 1018.42 1018.49 1018.47 1018.44 1018.43 1018.36 1018.40 1018.35 1018.39 1018.38 1018.34 1018.25
1002.58 1003.15 1004.59 1005.34 1005.69 1006.32 1006.87 1007.82 1008.21 1009.05 1009.48 1010.18 1010.60 1011.51 1012.37 1012.92 1013.49 1013.84 1014.13 1014.67 1015.18 1015.50 1015.68 1016.17 1016.28 1016.53 1016.64 1016.77 1017.06 1017.19 1017.31 1017.40 1017.36 1017.61 1017.73 1017.97 1018.12 1018.25 1018.28 1018.18 1018.30 1018.33 1018.33 1018.52 1018.47 1018.58 1018.48 1018.33 1018.26
1002.45 1003.15 1004.61 1004.98 1005.64 1006.40 1006.87 1007.98 1008.10 1009.66 1009.86 1010.45 1010.83 1011.45 1012.14 1012.57 1013.12 1013.64 1014.08 1014.49 1014.91 1015.08 1015.35 1015.74 1016.00 1016.10 1016.44 1016.71 1016.87 1016.94 1016.90 1017.01 1017.18 1017.31 1017.49 1017.55 1017.78 1018.00 1018.06 1018.24 1018.38 1018.30 1018.42 1018.42 1018.37 1018.36 1018.30 1018.24 1018.15
1002.28 1004.02 1004.96 1005.53 1005.80 1006.60 1006.36 1008.20 1008.45 1009.18 1009.94 1010.48 1010.96 1011.40 1011.85 1012.16 1012.76 1013.21 1013.60 1013.99 1014.31 1014.72 1015.07 1015.41 1015.71 1015.80 1016.28 1016.47 1016.48 1016.60 1016.74 1016.86 1016.94 1017.02 1017.05 1017.30 1017.44 1017.57 1017.85 1018.08 1018.44 1018.25 1018.25 1018.22 1018.26 1018.23 1018.22 1018.22 1018.04
1003.18 1003.70 1005.38 1006.13 1005.66 1006.43 1006.41 1008.88 1009.11 1009.38 1009.81 1010.54 1010.90 1011.24 1011.63 1012.02 1012.31 1012.72 1013.15 1013.52 1013.89 1014.44 1014.87 1015.14 1015.43 1015.76 1016.10 1016.32 1016.27 1016.39 1016.49 1016.67 1016.82 1016.80 1016.92 1017.10 1017.12 1017.22 1017.56 1017.95 1018.22 1018.03 1018.17 1018.24 1018.41 1018.51 1018.40 1018.37 1018.29
1003.78 1004.19 1004.80 1005.86 1005.32 1005.65 1006.68 1008.83 1008.95 1009.03 1009.45 1010.01 1010.43 1010.73 1011.02 1011.61 1012.06 1012.50 1012.83 1013.17 1013.51 1013.96 1014.59 1015.03 1015.24 1015.59 1015.92 1015.97 1016.07 1016.27 1016.36 1016.48 1016.48 1016.56 1016.72 1016.78 1016.89 1017.07 1017.33 1017.72 1017.84 1017.91 1018.05 1018.24 1018.46 1018.48 1018.56 1018.39 1018.15
1003.93 1004.17 1004.56 1004.55 1005.13 1005.61 1006.70 1007.75 1008.16 1008.60 1009.03 1009.08 1009.65 1010.18 1010.58 1011.03 1011.40 1011.77 1012.32 1012.83 1013.21 1013.61 1014.13 1014.52 1014.99 1015.34 1015.65 1015.92 1016.08 1016.19 1016.38 1016.40 1016.36 1016.47 1016.53 1016.67 1016.76 1016.86 1017.11 1017.47 1017.57 1017.73 1017.98 1018.19 1018.28 1018.38 1018.39 1018.28 1018.19
1003.62 1003.56 1003.80 1003.69 1004.39 1005.63 1006.45 1007.35 1007.72 1008.20 1008.77 1009.10 1009.17 1009.61 1010.19 1010.66 1010.99 1011.42 1011.91 1012.45 1013.04 1013.45 1013.96 1014.36 1014.87 1015.16 1015.58 1015.97 1016.27 1016.43 1016.58 1016.48 1016.41 1016.21 1016.36 1016.49 1016.59 1016.74 1017.03 1017.24 1017.37 1017.50 1017.87 1017.93 1018.01 1018.05 1018.13 1018.19 1018.06
1003.33 1003.71 1003.24 1003.48 1003.85 1004.95 1006.51 1007.21 1007.41 1007.72 1007.72 1008.01 1008.50 1009.20 1009.64 1010.46 1011.04 1011.45 1011.76 1012.26 1012.87 1013.31 1013.74 1014.23 1014.53 1014.96 1015.25 1015.46 1015.83 1016.06 1016.11 1016.09 1016.00 1015.92 1016.16 1016.33 1016.40 1016.56 1016.78 1017.04 1017.43 1017.50 1017.71 1017.86 1017.86 1017.86 1017.98 1018.10 1017.98
1002.39 1002.71 1002.81 1002.84 1003.76 1005.07 1006.76 1008.16 1007.91 1007.68 1007.76 1007.96 1008.20 1008.14 1008.60 1009.43 1010.52 1011.23 1011.69 1012.10 1012.55 1013.14 1013.50 1013.94 1014.30 1014.62 1014.91 1015.22 1015.67 1015.97 1016.03 1016.09 1016.13 1016.14 1016.36 1016.38 1016.32 1016.46 1016.69 1016.96 1017.15 1017.31 1017.43 1017.61 1017.67 1017.71 1017.81 1018.01 1018.01
1002.16 1001.90 1001.62 1002.60 1003.78 1005.39 1005.95 1007.88 1007.82 1007.36 1007.62 1007.58 1007.65 1008.09 1008.36 1008.84 1009.40 1010.42 1011.11 1011.77 1012.25 1012.61 1013.02 1013.52 1013.99 1014.37 1014.65 1015.00 1015.39 1015.71 1015.92 1016.28 1016.25 1016.16 1016.25 1016.30 1016.19 1016.32 1016.49 1016.67 1016.84 1017.07 1017.23 1017.45 1017.48 1017.48 1017.58 1017.70 1017.98
1001.07 1001.07 1001.61 1002.30 1003.60 1005.03 1006.42 1007.17 1006.70 1007.38 1007.62 1007.02 1006.77 1006.72 1007.02 1007.77 1008.46 1009.37 1010.06 1010.71 1011.38 1011.98 1012.46 1012.89 1013.51 1013.98 1014.30 1014.73 1015.02 1015.57 1015.99 1016.09 1016.03 1016.24 1016.37 1016.44 1016.41 1016.33 1016.38 1016.57 1016.93 1017.06 1017.14 1017.24 1017.31 1017.32 1017.37 1017.46 1017.68
1000.13 1000.89 1001.60 1003.11 1004.76 1006.04 1005.93 1006.41 1006.76 1006.29 1005.11 1005.40 1005.74 1006.00 1006.49 1007.13 1007.73 1008.44 1009.22 1009.92 1010.61 1011.51 1012.11 1012.62 1013.10 1013.56 1013.98 1014.43 1014.86 1015.32 1015.91 1016.15 1016.26 1016.47 1016.71 1016.58 1016.22 1016.28 1016.28 1016.50 1016.77 1016.71 1016.86 1016.97 1017.06 1017.06 1017.18 1017.29 1017.39
1000.28 1001.71 1002.97 1004.54 1006.06 1006.17 1005.28 1005.98 1004.53 1003.93 1003.63 1003.62 1004.13 1004.76 1005.39 1006.16 1007.08 1007.81 1008.77 1009.59 1010.12 1010.85 1011.50 1012.15 1012.67 1013.27 1013.69 1014.14 1014.56 1014.97 1015.33 1015.68 1016.09 1016.33 1016.53 1016.58 1016.54 1016.60 1016.52 1016.64 1016.74 1016.70 1016.61 1016.65 1016.74 1016.94 1017.03 1017.16 1017.27
1000.22 1001.38 1003.19 1004.33 1005.14 1005.06 1004.88 1004.13 1002.28 1001.68 1001.53 1002.42 1002.82 1003.43 1004.54 1005.49 1006.14 1006.83 1007.65 1008.45 1009.18 1009.87 1010.70 1011.36 1012.01 1012.68 1013.32 1013.80 1014.09 1014.39 1014.77 1015.22 1015.46 1015.86 1016.13 1016.37 1016.57 1016.48 1016.46 1016.48 1016.35 1016.34 1016.45 1016.55 1016.55 1016.74 1016.84 1016.96 1017.07
999.80 1000.66 1001.54 1003.53 1005.10 1005.35 1004.23 1002.93 1001.27 1000.56 1001.34 1001.94 1002.69 1003.65 1003.95 1004.66 1005.48 1006.20 1006.99 1007.54 1008.25 1008.93 1009.51 1010.21 1010.97 1011.69 1012.40 1013.02 1013.65 1014.19 1014.51 1014.97 1015.32 1015.55 1015.81 1016.06 1016.17 1016.25 1016.25 1016.03 1016.27 1016.25 1016.25 1016.25 1016.44 1016.48 1016.55 1016.67 1016.77
998.37 999.43 1001.73 1003.39 1004.81 1005.48 1004.58 1003.61 1002.22 1001.73 1001.52 1001.77 1002.48 1003.02 1003.44 1004.06 1004.78 1005.53 1006.21 1006.57 1007.13 1007.51 1008.30 1009.21 1010.00 1010.67 1011.36 1012.23 1013.01 1013.70 1014.01 1014.33 1014.95 1015.21 1015.51 1015.66 1015.86 1015.98 1015.99 1016.09 1016.11 1016.15 1016.16 1016.20 1016.22 1016.28 1016.30 1016.40 1016.45
998.38 999.25 1000.99 1002.36 1003.84 1004.77 1004.75 1003.90 1001.17 1000.68 1000.77 1001.34 1001.74 1001.83 1002.91 1003.51 1003.90 1004.47 1005.15 1005.88 1006.36 1006.93 1007.89 1008.52 1009.54 1010.26 1010.92 1011.73 1012.60 1013.20 1013.51 1013.92 1014.36 1014.93 1015.16 1015.27 1015.53 1015.74 1015.78 1015.90 1015.91 1015.89 1015.89 1015.95 1016.13 1016.09 1016.00 1016.14 1016.21
996.84 998.41 1000.10 1002.07 1003.70 1004.09 1003.80 1002.47 1000.46 1000.02 1000.24 1000.53 1001.16 1001.55 1001.94 1002.73 1003.17 1003.72 1004.31 1005.04 1005.94 1006.55 1007.32 1007.81 1008.84 1009.64 1010.22 1011.13 1011.91 1012.49 1013.00 1013.59 1014.04 1014.40 1014.62 1014.88 1015.18 1015.40 1015.39 1015.50 1015.58 1015.54 1015.53 1015.44 1015.52 1015.69 1015.90 1015.95 1016.00
Thickness
5832 5834 5836 5823 5783 5780 5765 5764 5782 5772 5776 5791 5793 5786 5767 5775 5766 5738 5769 5770 5769 5770 5770 5770 5766 5768 5766 5764 5763 5761 5760 5764 5760 5758 5759 5754 5754 5757 5752 5749 5749 5749 5748 5750 5751 5751 5751 5750 5749
5832 5830 5826 5809 5773 5753 5758 5785 5774 5785 5791 5796 5795 5787 5777 5763 5776 5769 5768 5773 5771 5771 5772 5770 5771 5769 5766 5762 5762 5763 5763 5765 5758 5760 5759 5757 5758 5756 5753 5750 5751 5750 5749 5751 5750 5751 5751 5750 5750
5833 5833 5809 5793 5771 5758 5762 5785 5791 5793 5795 5793 5787 5791 5775 5762 5775 5775 5778 5778 5774 5774 5775 5771 5771 5769 5767 5765 5765 5766 5763 5763 5763 5762 5760 5761 5760 5759 5755 5754 5754 5753 5753 5751 5751 5750 5751 5751 5751
5834 5822 5816 5786 5775 5796 5795 5796 5805 5792 5792 5800 5794 5774 5781 5786 5780 5784 5783 5780 5776 5775 5774 5773 5771 5767 5767 5767 5768 5764 5764 5765 5763 5763 5763 5763 5761 5758 5757 5756 5757 5756 5754 5752 5752 5751 5752 5753 5754
5840 5819 5784 5777 5791 5797 5807 5810 5809 5796 5795 5793 5794 5770 5770 5782 5785 5785 5782 5779 5776 5776 5774 5773 5769 5767 5767 5766 5768 5765 5765 5764 5763 5763 5764 5763 5760 5759 5759 5759 5759 5757 5755 5754 5753 5754 5753 5754 5755
5818 5813 5771 5762 5777 5805 5806 5816 5812 5801 5793 5789 5780 5778 5768 5784 5781 5782 5782 5779 5778 5777 5775 5772 5769 5768 5767 5766 5765 5765 5764 5764 5765 5765 5765 5761 5760 5760 5759 5758 5758 5757 5757 5756 5755 5754 5754 5755 5754
5827 5794 5777 5782 5782 5792 5804 5823 5811 5799 5794 5790 5797 5773 5771 5777 5784 5785 5782 5781 5779 5776 5775 5773 5771 5770 5769 5767 5767 5767 5767 5766 5766 5766 5765 5762 5761 5760 5759 5759 5757 5756 5757 5758 5756 5755 5754 5754 5754
5834 5803 5791 5788 5783 5791 5812 5820 5824 5817 5804 5812 5808 5772 5767 5783 5788 5786 5783 5780 5778 5776 5775 5774 5773 5771 5770 5770 5770 5769 5769 5769 5768 5766 5765 5764 5762 5760 5759 5757 5756 5756 5756 5757 5756 5755 5754 5754 5753
5844 5787 5775 5798 5796 5802 5824 5818 5824 5830 5813 5812 5813 5803 5798 5795 5791 5783 5780 5776 5775 5776 5776 5775 5774 5773 5773 5772 5772 5772 5772 5772 5769 5767 5766 5764 5762 5761 5759 5757 5756 5754 5755 5755 5755 5753 5751 5752 5752
5826 5791 5794 5826 5826 5820 5826 5828 5827 5812 5806 5803 5802 5806 5804 5798 5790 5782 5777 5773 5774 5775 5777 5778 5777 5777 5776 5775 5774 5774 5774 5774 5772 5769 5767 5764 5762 5760 5758 5758 5756 5754 5754 5755 5753 5751 5750 5748 5749
5834 5813 5833 5832 5842 5838 5826 5823 5828 5813 5796 5811 5802 5802 5802 5795 5790 5787 5784 5782 5782 5784 5783 5783 5782 5780 5778 5777 5775 5774 5775 5774 5773 5771 5768 5763 5760 5758 5758 5757 5756 5753 5753 5752 5750 5748 5746 5745 5746
5829 5847 5844 5834 5843 5835 5827 5827 5820 5821 5812 5822 5818 5813 5805 5796 5791 5791 5788 5787 5785 5786 5788 5787 5785 5782 5781 5780 5777 5777 5776 5774 5773 5770 5767 5763 5761 5759 5757 5756 5754 5752 5751 5748 5747 5745 5743 5742 5743
5848 5851 5848 5845 5845 5840 5838 5821 5821 5816 5822 5822 5820 5812 5803 5799 5796 5798 5798 5796 5794 5790 5791 5789 5788 5786 5784 5782 5780 5779 5777 5775 5774 5770 5767 5763 5761 5759 5757 5756 5754 5752 5749 5746 5744 5743 5742 5741 5741
5861 5852 5844 5851 5846 5842 5831 5825 5829 5816 5824 5816 5815 5808 5805 5802 5799 5798 5797 5796 5794 5795 5794 5794 5792 5789 5787 5785 5782 5781 5780 5777 5775 5772 5769 5766 5762 5760 5757 5755 5752 5751 5748 5746 5745 5743 5742 5742 5740
5866 5835 5840 5842 5844 5833 5844 5814 5813 5826 5823 5814 5810 5809 5808 5807 5805 5801 5801 5800 5801 5799 5799 5796 5794 5792 5789 5788 5786 5784 5783 5780 5778 5774 5772 5768 5764 5762 5758 5755 5751 5750 5749 5747 5745 5743 5742 5740 5740
5839 5834 5799 5827 5842 5841 5837 5786 5814 5827 5821 5812 5813 5811 5809 5807 5808 5809 5808 5806 5806 5802 5799 5799 5798 5794 5791 5790 5788 5786 5783 5781 5778 5776 5773 5769 5767 5764 5760 5756 5753 5752 5748 5746 5743 5742 5740 5738 5737
5820 5799 5808 5814 5843 5840 5828 5795 5818 5829 5823 5816 5816 5816 5814 5809 5809 5810 5811 5809 5809 5807 5802 5798 5799 5795 5793 5791 5789 5786 5784 5782 5781 5778 5774 5771 5768 5765 5762 5757 5754 5752 5749 5746 5742 5740 5737 5735 5735
5805 5802 5816 5814 5831 5836 5820 5808 5823 5826 5823 5822 5821 5818 5817 5813 5814 5816 5814 5813 5811 5808 5806 5803 5799 5797 5794 5792 5789 5787 5785 5783 5781 5778 5776 5771 5769 5765 5761 5757 5755 5752 5749 5745 5743 5739 5736 5735 5733
5828 5823 5821 5836 5841 5823 5817 5813 5822 5827 5823 5820 5823 5820 5818 5814 5819 5821 5818 5816 5812 5809 5806 5803 5800 5798 5794 5789 5785 5782 5780 5780 5780 5779 5776 5773 5770 5767 5763 5759 5756 5753 5748 5746 5744 5741 5737 5734 5734
5826 5814 5821 5840 5845 5829 5815 5810 5826 5829 5827 5829 5825 5821 5821 5813 5813 5815 5817 5816 5811 5809 5807 5804 5802 5799 5796 5794 5789 5786 5784 5781 5780 5779 5774 5772 5770 5766 5763 5759 5755 5751 5747 5744 5742 5739 5734 5731 5732
5823 5817 5822 5830 5842 5829 5811 5789 5805 5824 5829 5829 5828 5834 5832 5820 5813 5813 5814 5813 5812 5808 5806 5804 5802 5801 5799 5795 5790 5786 5783 5780 5776 5774 5771 5768 5766 5763 5760 5756 5753 5750 5747 5742 5739 5736 5733 5725 5725
5800 5839 5852 5839 5826 5779 5820 5757 5790 5813 5814 5824 5827 5826 5829 5825 5826 5820 5816 5811 5811 5810 5810 5808 5804 5800 5798 5795 5789 5784 5778 5772 5773 5772 5770 5766 5763 5759 5756 5752 5749 5745 5742 5738 5735 5733 5729 5725 5717
5827 5850 5843 5842 5827 5806 5802 5771 5806 5798 5792 5809 5825 5835 5839 5835 5831 5824 5823 5819 5816 5815 5813 5810 5805 5800 5797 5792 5788 5781 5776 5775 5773 5768 5764 5762 5760 5757 5753 5749 5743 5740 5736 5733 5730 5727 5724 5721 5716
5860 5848 5833 5819 5797 5763 5795 5786 5776 5790 5818 5826 5832 5841 5842 5836 5833 5830 5829 5826 5819 5816 5812 5808 5804 5799 5795 5790 5785 5779 5772 5768 5765 5761 5756 5755 5755 5752 5748 5743 5738 5737 5734 5730 5727 5724 5719 5714 5711
5842 5805 5767 5770 5750 5750 5789 5784 5804 5824 5841 5843 5840 5843 5846 5841 5835 5829 5822 5817 5816 5812 5809 5804 5800 5793 5790 5785 5781 5777 5771 5766 5760 5756 5752 5750 5747 5744 5742 5739 5735 5732 5728 5724 5720 5717 5712 5708 5703
5816 5806 5759 5749 5751 5772 5798 5780 5822 5852 5864 5857 5856 5854 5849 5841 5836 5831 5827 5822 5818 5815 5809 5805 5800 5793 5788 5783 5780 5776 5771 5765 5761 5755 5750 5746 5742 5740 5737 5733 5729 5726 5722 5717 5714 5710 5707 5702 5697
5821 5795 5821 5783 5783 5765 5788 5817 5845 5858 5852 5852 5844 5839 5843 5844 5837 5832 5829 5827 5824 5820 5814 5811 5803 5797 5791 5785 5778 5772 5768 5764 5759 5754 5750 5744 5740 5737 5733 5729 5724 5720 5717 5714 5710 5705 5702 5697 5691
5836 5840 5792 5770 5753 5754 5771 5790 5791 5824 5833 5841 5839 5836 5840 5843 5838 5836 5832 5833 5832 5832 5826 5817 5809 5802 5796 5788 5780 5772 5768 5764 5756 5751 5745 5741 5736 5733 5729 5723 5720 5716 5713 5709 5704 5699 5694 5689 5684
5818 5812 5805 5796 5775 5750 5746 5765 5826 5838 5841 5838 5842 5851 5839 5838 5842 5841 5836 5835 5834 5832 5825 5819 5808 5801 5794 5786 5777 5770 5766 5761 5755 5748 5742 5739 5733 5728 5723 5718 5715 5711 5707 5702 5696 5691 5687 5681 5675
5839 5820 5807 5771 5773 5769 5764 5771 5843 5846 5846 5851 5849 5851 5849 5845 5847 5847 5841 5837 5828 5826 5822 5817 5808 5800 5794 5784 5778 5770 5764 5756 5750 5745 5740 5735 5727 5723 5719 5715 5710 5706 5702 5699 5693 5686 5679 5673 5667